Location: Cazavet
(43.0017°N, 1.0431°E)
Time: 22:54:12
(UTC+00:00)

Cosmos 1763 Rocket - Pass Details

Date: 18 January 2026
Orbit: 729 x 773 km, 74.0° (Epoch: 13 February)

Event Time Altitude Azimuth Distance (km) Brightness Sun altitude
Exits shadow 06:10:50 - 337° (NNW) 2,708 6.0 -13.0°
Reaches altitude 10° 06:12:02 10° 337° (NNW) 2,238 5.5 -12.8°
Maximum altitude 06:17:05 75° 252° (WSW) 763 3.4 -11.9°
Drops below altitude 10° 06:22:08 10° 168° (SSE) 2,241 6.3 -11.0°
Sets 06:24:29 0° 166° (SSE) 3,167 7.2 -10.6°
